Dewpoint
48 48 47 47 48 48 46 46 47 47 47 46 45 46 46 48 51 51 46 50 48 44 40 41 41 40 41 40 37 39 36 43 41 39 40 36 35 35 32 32 30 27 25 25 26 24 21 31 38 30 33 40 42 46
48 48 47 48 48 48 47 47 47 47 46 45 46 47 48 47 50 52 48 50 52 46 43 45 44 43 42 43 43 44 42 42 43 40 41 43 40 37 33 29 33 25 29 26 27 26 37 41 41 45 43 46 47 48
48 48 47 47 48 48 47 47 46 46 46 46 47 47 48 48 50 51 49 49 48 45 41 43 42 43 46 43 43 40 40 42 44 45 43 43 42 41 34 33 35 39 37 30 29 38 39 43 49 47 48 49 51 51
47 47 47 47 48 48 47 47 47 47 46 45 46 47 48 48 50 51 49 49 48 45 40 37 43 42 43 43 45 44 42 47 45 46 42 43 44 45 41 39 38 41 41 40 40 46 47 46 48 51 52 51 51 52
47 47 47 47 48 48 47 47 47 46 46 45 46 48 48 48 50 50 50 49 48 43 38 38 41 44 44 44 44 44 44 45 45 42 43 40 44 48 44 42 40 43 42 40 31 44 44 45 50 53 52 51 52 52
46 46 46 46 46 47 47 47 46 46 46 47 47 49 48 48 50 48 45 51 51 50 44 39 43 44 44 44 44 44 44 46 45 45 44 43 42 43 44 39 42 42 43 43 42 48 51 51 53 53 52 52 53 54
46 46 46 46 46 46 47 47 46 46 47 47 50 49 48 49 50 44 43 50 52 50 45 40 39 42 43 44 43 43 45 47 47 46 45 45 42 42 40 41 42 41 43 46 51 53 52 52 52 52 51 54 56 54
47 47 47 47 46 46 47 47 46 46 46 47 50 50 51 51 50 46 45 48 49 46 47 39 37 40 46 43 42 47 46 49 49 46 46 45 44 41 39 41 43 44 45 49 51 51 50 53 53 52 52 56 56 53
48 47 47 47 46 46 46 46 45 45 47 49 50 51 49 48 46 46 52 52 50 48 42 42 36 37 44 48 46 43 46 44 49 44 44 45 42 39 40 42 43 43 45 48 51 50 52 52 50 52 53 55 55 55
48 48 48 47 47 48 45 46 45 47 48 50 49 45 41 46 51 51 51 47 47 47 46 41 41 37 39 42 46 46 45 42 41 43 47 44 41 42 42 44 44 44 44 48 50 50 50 50 50 53 54 55 55 56
48 48 49 49 49 48 46 46 47 48 49 47 43 43 48 50 51 48 43 42 42 40 43 42 42 39 42 38 44 47 44 44 40 42 41 40 39 41 43 44 45 44 44 43 45 52 51 49 50 52 53 55 55 56
48 49 48 47 48 48 46 47 48 49 48 47 47 48 48 46 44 41 40 41 41 38 42 41 43 43 43 46 46 46 42 43 37 45 42 38 40 45 46 45 43 46 44 42 42 45 48 52 50 53 54 55 55 56
49 49 46 46 47 46 46 49 50 50 50 49 46 43 42 40 36 35 33 36 39 44 44 43 44 44 44 47 45 44 40 38 44 41 39 41 46 49 48 49 43 44 44 43 42 43 47 52 54 53 54 55 56 56
49 48 49 48 46 46 48 50 50 50 47 43 38 35 37 36 37 38 38 40 43 45 45 46 45 45 47 45 44 40 41 43 38 36 37 43 49 51 51 51 52 50 45 42 42 43 43 47 50 54 54 56 55 55
48 48 48 48 48 49 50 50 50 49 45 40 41 33 35 37 39 41 43 45 45 47 46 45 46 46 44 43 44 41 39 37 38 38 44 48 51 52 52 52 53 53 52 52 46 44 44 50 53 54 55 56 55 56
48 48 47 48 48 50 50 50 50 48 45 40 39 37 37 38 38 42 43 41 46 47 48 48 44 43 39 41 40 38 37 38 40 46 48 50 50 52 52 53 55 55 53 52 51 47 45 48 52 54 55 55 56 56
48 45 48 49 48 50 50 48 46 43 41 40 37 39 39 38 38 39 42 43 48 47 42 45 41 38 41 40 38 40 39 44 46 47 50 51 50 52 53 53 54 55 54 54 52 50 48 47 48 51 53 55 55 56
46 48 50 49 49 49 49 47 44 42 38 37 37 37 39 41 40 41 44 44 47 46 45 42 44 40 38 37 38 42 45 47 48 49 50 50 50 52 54 53 54 51 51 53 54 55 54 51 48 48 50 52 53 54
46 48 48 49 49 47 43 43 45 38 38 39 39 40 40 39 40 41 40 42 47 48 46 45 41 39 39 43 43 45 46 46 46 49 50 51 51 52 52 51 51 50 50 51 53 54 55 55 53 52 51 50 48 50
48 48 48 49 49 45 41 42 45 41 36 39 41 40 40 40 42 43 43 44 47 47 45 43 40 42 43 46 47 46 47 50 49 47 47 49 52 52 53 52 50 51 51 51 51 51 51 52 53 55 55 54 52 52
46 48 49 49 47 45 44 42 42 42 41 42 42 44 43 43 42 42 44 48 46 44 41 43 43 43 45 47 48 48 47 49 49 50 49 50 53 53 53 51 51 51 53 53 53 51 53 54 54 56 57 57 57 56
47 49 47 48 44 43 42 42 41 42 41 41 41 43 41 41 43 45 47 45 44 43 44 42 43 43 44 46 45 47 48 49 51 53 52 52 52 52 52 51 52 51 51 52 53 53 53 54 55 56 56 57 57 58
48 48 46 44 40 41 39 43 40 41 39 41 43 43 42 43 45 48 44 44 44 46 46 46 47 48 47 47 48 51 52 52 53 53 52 51 52 53 52 55 55 53 53 53 54 55 54 53 55 56 57 57 57 58
49 45 41 39 37 36 39 39 41 41 41 41 41 39 41 43 47 44 43 45 48 51 51 51 52 52 53 52 52 54 54 54 53 53 53 52 52 53 54 54 54 54 55 55 54 55 55 54 54 55 55 55 55 54
39 38 39 36 40 39 36 36 39 39 38 39 38 38 41 44 41 41 42 45 49 50 52 53 53 53 52 52 53 54 55 55 53 52 54 54 55 54 54 54 53 54 55 55 55 55 55 55 55 55 54 53 52 52
34 37 36 36 38 37 37 38 39 38 38 38 39 42 45 43 41 40 44 48 48 51 52 53 52 52 52 53 51 52 53 55 54 53 53 55 53 53 52 52 52 52 54 56 55 54 53 53 53 52 51 51 51 51
33 35 39 41 40 39 38 39 40 40 38 38 40 40 40 38 39 43 49 51 51 53 54 53 52 52 52 52 53 53 56 56 56 55 57 57 57 56 55 52 52 54 55 53 55 54 53 52 52 52 52 51 51 50
37 38 36 39 40 40 38 39 39 39 40 43 43 40 40 40 42 49 50 53 54 54 54 54 51 50 49 50 52 55 56 56 55 52 49 44 45 46 48 53 54 51 54 54 55 55 53 53 51 51 51 51 51 51
38 40 41 38 39 40 42 41 40 42 45 43 41 44 45 48 49 49 52 54 55 53 46 43 41 42 43 45 45 46 45 44 41 39 39 40 43 45 47 47 52 52 52 52 50 51 52 51 50 50 50 51 52 52
38 41 40 40 38 38 42 45 44 47 49 49 49 49 46 46 49 53 54 52 47 43 43 38 38 39 38 38 38 40 41 41 40 37 37 40 42 44 46 48 49 49 50 50 50 51 50 51 51 51 49 50 51 50
43 44 42 42 41 43 45 48 48 49 49 49 49 45 44 46 47 50 52 50 46 38 37 36 36 36 36 37 37 37 38 42 43 43 42 42 42 44 45 46 46 47 47 47 47 47 47 46 47 47 47 47 47 47
44 42 40 39 41 47 50 48 47 47 45 43 42 43 43 42 42 43 45 47 41 34 34 32 32 36 37 39 40 41 41 41 41 41 40 39 40 42 43 43 44 44 43 43 43 43 43 43 43 43 43 44 44 45
43 42 42 42 45 44 46 44 42 41 43 41 41 41 42 40 37 41 44 45 42 36 35 35 38 40 42 41 41 40 40 39 38 38 38 38 39 41 42 42 42 41 40 39 39 38 38 38 38 38 39 39 39 40
Wind_Speed
12 12 13 13 14 14 10 10 11 12 11 10 11 10 10 10 12 3 4 6 3 5 15 18 17 17 12 9 6 5 8 1 2 3 4 3 5 12 9 6 5 12 13 6 5 5 8 15 13 13 7 4 4 9
12 12 12 13 15 14 11 10 9 9 10 11 12 12 8 9 11 5 4 2 5 7 9 11 17 22 20 16 6 4 5 3 3 3 2 4 4 5 15 7 3 9 8 13 12 11 1 25 4 6 7 8 6 10
9 11 12 13 15 14 11 11 10 9 10 11 12 13 8 9 12 8 4 3 4 6 13 9 9 13 12 26 28 13 8 6 4 1 3 4 6 3 7 10 3 3 1 6 7 9 9 21 5 8 7 7 9 6
10 11 12 13 14 13 9 10 10 8 8 10 13 14 11 10 11 7 4 2 2 5 6 6 1 11 11 15 19 30 17 1 3 2 4 3 5 2 2 1 1 3 5 8 4 2 5 12 7 10 11 11 11 10
9 10 11 12 13 12 12 10 10 8 10 12 13 15 11 10 11 9 9 9 10 4 5 14 25 4 4 13 15 20 22 17 5 4 3 4 5 4 3 2 5 5 3 7 9 14 7 11 18 14 15 12 12 13
10 11 12 13 14 14 12 11 11 9 11 12 14 15 9 9 8 3 4 1 10 9 4 6 5 4 4 3 12 12 15 9 5 4 4 4 4 3 5 3 4 3 5 8 6 7 8 10 17 15 13 13 12 12
12 13 13 13 14 14 14 12 11 8 10 12 14 11 9 7 3 4 3 2 5 6 3 6 6 3 4 3 5 7 11 5 6 3 5 4 9 8 5 8 4 6 7 5 5 10 9 11 10 14 11 12 12 12
14 14 13 12 13 13 11 10 9 8 11 13 14 12 9 4 7 7 7 9 8 4 3 4 6 5 1 3 4 7 7 5 7 3 3 3 5 5 7 11 5 14 8 1 9 4 2 10 19 13 13 16 14 13
13 14 12 12 12 11 11 8 8 10 11 13 13 11 2 3 3 3 3 8 4 3 3 3 4 4 6 1 2 5 6 5 5 7 5 5 4 8 11 6 5 12 8 4 12 6 10 15 16 16 18 15 14 14
13 13 14 12 11 11 12 9 10 9 10 12 4 2 3 3 3 3 4 3 5 5 4 5 2 6 2 2 2 2 4 5 5 7 5 5 6 18 23 20 15 10 3 6 3 7 9 13 17 20 19 15 14 15
13 15 14 14 13 11 8 7 8 9 6 1 2 3 4 7 3 4 2 4 4 4 5 4 6 6 2 4 2 3 3 5 3 3 4 3 5 6 8 17 17 16 12 9 7 3 6 10 17 17 15 14 14 15
14 15 17 14 12 9 7 6 8 2 1 2 4 5 3 2 1 1 3 4 5 3 3 3 4 7 3 3 3 3 2 2 3 8 3 3 3 11 17 13 12 16 15 13 10 9 11 13 15 15 16 18 17 16
11 13 10 6 3 4 5 7 5 4 5 2 2 2 2 1 3 4 3 3 2 2 2 5 6 3 2 5 4 2 3 3 1 3 3 4 10 14 14 14 5 11 12 10 10 11 10 12 12 17 16 14 15 16
10 9 9 7 5 4 6 4 4 3 1 1 1 3 4 4 5 4 2 3 1 4 4 7 6 3 3 3 2 3 1 2 3 3 2 7 14 17 13 10 7 1 2 7 12 13 14 14 13 18 19 17 17 18
10 9 9 9 6 4 2 2 4 1 1 1 2 4 6 5 5 5 5 5 2 6 5 5 5 3 2 3 2 1 2 3 3 1 6 14 17 15 8 11 9 6 4 9 10 11 12 12 15 19 20 19 18 16
10 9 1 5 3 3 2 2 3 2 1 2 4 5 5 5 7 4 3 4 3 7 5 3 2 2 2 3 3 5 2 1 6 4 6 12 17 15 9 9 9 3 6 7 8 8 8 9 12 15 15 17 19 20
6 2 6 4 3 4 3 2 2 2 3 3 5 8 11 11 12 10 3 4 3 4 2 2 3 2 2 3 3 2 2 0 5 6 10 11 12 12 13 10 9 10 11 8 3 5 9 10 7 7 13 18 19 18
1 5 8 3 6 3 2 1 2 3 5 6 6 5 5 8 9 9 5 5 3 2 2 2 3 2 2 2 0 2 2 4 6 6 6 6 7 9 9 7 8 7 12 7 6 3 2 4 10 13 11 9 10 10
5 8 7 1 4 2 3 3 3 3 6 6 8 9 8 9 12 15 13 9 6 4 5 2 3 3 3 3 3 4 3 3 7 9 8 7 7 6 7 8 6 5 6 9 8 6 4 2 4 5 6 7 11 11
9 9 8 4 1 2 2 2 3 4 4 3 4 6 6 7 5 4 4 5 5 4 4 5 5 4 4 5 6 6 7 6 7 10 10 5 4 6 7 6 4 4 3 6 11 10 8 5 4 6 6 7 9 11
4 1 3 4 2 3 3 2 4 4 5 5 6 3 6 4 5 5 3 7 5 5 6 9 10 9 8 9 9 9 11 7 8 6 7 9 5 6 3 4 4 2 1 2 3 4 5 6 5 4 5 4 5 6
3 6 2 2 1 2 4 4 4 5 4 5 6 4 6 4 3 2 3 5 5 7 7 9 12 11 10 11 12 8 10 9 7 6 5 5 4 4 4 6 6 5 5 4 4 6 8 7 6 5 5 6 4 3
6 4 2 2 2 3 3 2 3 3 4 3 2 3 3 3 2 2 3 4 5 5 5 5 7 8 11 10 7 7 5 4 3 2 3 3 3 3 2 3 4 6 5 4 3 4 5 4 2 3 3 4 5 6
4 2 4 5 5 3 2 3 4 4 3 4 3 4 3 2 0 3 4 3 3 2 3 5 5 5 2 1 2 2 2 1 1 1 3 3 2 1 1 3 4 4 4 5 5 5 4 3 2 5 5 5 6 7
2 2 1 3 3 4 4 4 4 4 4 3 3 3 2 3 3 4 3 2 1 3 5 4 3 3 2 0 3 3 3 3 5 6 4 3 3 3 4 4 6 7 7 6 7 7 6 4 5 5 4 4 5 6
3 5 6 4 3 4 4 3 2 3 4 3 4 3 3 4 3 4 2 1 1 2 3 5 4 2 2 2 4 4 4 5 6 9 5 5 6 7 8 8 6 6 7 5 5 6 7 7 8 9 10 11 10 9
3 4 5 4 3 3 5 7 6 5 4 3 2 2 4 3 3 3 2 1 1 1 3 2 2 3 3 3 2 1 2 4 8 8 5 6 6 6 8 9 9 5 4 3 6 6 7 8 9 10 10 9 9 9
5 3 5 2 5 5 5 5 3 3 3 4 3 3 1 4 4 2 1 2 1 2 2 5 6 5 6 4 4 5 5 5 7 7 7 8 10 12 9 6 6 6 5 5 6 7 8 8 7 7 8 8 7 6
5 4 4 9 6 6 5 5 4 2 3 3 5 1 2 3 3 2 2 0 1 4 7 7 9 9 12 14 13 15 12 8 13 18 16 14 13 14 14 9 7 8 7 8 13 11 9 7 7 7 7 6 5 5
4 7 4 4 3 4 3 7 6 5 5 6 4 4 1 3 3 1 8 8 5 8 8 11 11 14 15 17 18 17 14 15 15 16 15 12 9 9 11 11 10 9 8 8 7 6 9 5 5 5 6 6 7 6
2 3 4 5 5 7 8 9 10 8 4 3 2 4 3 4 5 5 2 3 7 8 11 10 10 11 15 15 15 16 15 12 13 13 11 10 10 11 11 12 11 12 12 13 13 13 11 12 11 11 12 12 13 12
2 5 3 3 4 4 5 4 3 3 6 7 8 4 4 10 8 4 2 1 7 8 7 8 12 10 10 11 13 14 14 11 11 11 12 12 11 11 11 11 12 12 13 15 16 15 16 16 15 14 13 14 14 14
5 5 5 4 3 1 2 2 2 3 5 6 6 5 4 4 3 2 2 2 2 7 9 9 10 10 10 12 14 14 15 15 16 19 21 19 17 14 12 13 13 15 16 16 16 16 17 17 16 16 15 14 14 14
Wind_Direction
302 308 315 318 316 317 302 300 293 300 313 317 323 315 325 305 325 237 280 198 236 251 274 263 258 261 264 255 246 320 312 92 279 249 245 240 244 207 204 157 236 178 176 170 130 183 233 160 141 191 194 139 149 164
300 309 314 318 316 313 301 303 301 305 310 315 316 318 311 300 297 286 263 222 194 240 267 290 264 261 248 245 222 239 287 321 289 296 283 296 277 246 211 219 153 247 204 180 189 206 110 179 158 150 154 143 151 164
307 307 313 318 319 313 307 306 301 300 309 316 317 319 302 302 289 282 264 267 264 268 284 268 261 271 242 228 232 236 249 222 214 343 289 282 269 287 198 223 267 225 51 182 159 205 202 187 113 155 143 133 148 139
308 308 314 316 316 324 316 304 303 301 307 311 314 315 303 302 294 292 228 237 286 277 282 295 270 276 270 244 210 215 227 240 360 326 301 281 280 289 232 36 295 253 173 191 205 170 135 199 185 153 135 136 134 128
300 306 316 314 311 309 307 311 307 295 304 310 303 308 299 301 296 282 245 248 224 222 288 295 303 279 312 217 202 209 219 236 274 313 258 258 285 301 257 251 226 198 211 193 203 192 168 191 173 151 143 150 149 140
294 302 303 306 316 321 315 303 296 301 307 311 312 309 296 286 290 317 295 173 216 189 269 302 317 288 307 212 193 192 195 199 219 223 245 266 264 264 266 195 284 313 318 259 284 124 89 123 145 150 150 158 154 149
295 293 293 295 298 306 306 312 304 295 308 317 318 309 294 289 257 220 258 134 93 4 254 290 290 275 146 122 116 157 178 196 198 219 243 233 286 310 265 217 199 321 313 274 144 115 100 157 153 153 152 151 142 144
298 299 289 284 291 296 297 303 298 304 308 311 312 314 301 286 272 277 262 260 197 213 276 280 278 299 37 204 143 155 168 195 191 214 261 227 273 236 252 243 159 284 294 79 159 14 138 141 134 142 149 147 146 152
303 299 300 289 287 292 300 288 296 297 304 312 315 309 293 205 228 234 292 170 184 248 272 247 283 295 350 265 123 169 176 192 174 209 216 195 232 228 245 250 223 222 241 192 179 106 125 154 142 152 155 161 164 168
304 303 305 294 284 280 277 284 301 302 304 308 298 247 243 210 279 254 197 188 176 209 223 250 256 266 314 306 164 217 189 200 204 219 155 232 250 232 247 243 238 237 321 12 147 141 151 167 168 170 173 174 178 173
305 310 304 295 280 278 268 273 299 310 291 229 248 244 301 316 255 177 239 189 182 232 215 240 233 251 210 237 253 227 222 182 245 162 219 231 258 241 249 253 235 236 237 254 258 237 200 195 187 173 178 183 176 172
310 307 306 289 265 269 257 274 287 257 284 300 285 286 299 309 267 249 229 186 216 247 184 252 264 217 254 226 250 201 256 171 246 151 234 249 272 354 331 303 250 217 219 225 219 214 236 208 201 196 184 180 179 176
317 319 328 327 304 253 275 290 275 220 316 253 233 273 238 245 236 227 221 220 219 148 105 290 282 230 226 224 247 249 239 240 164 223 241 265 356 343 331 334 278 207 213 225 215 212 221 220 191 194 199 191 178 176
317 321 332 320 298 272 290 248 189 218 248 236 232 271 228 215 237 210 241 320 265 191 249 278 278 240 204 221 226 239 218 258 252 238 233 325 338 332 326 323 317 155 186 229 225 217 214 225 213 202 204 185 183 182
318 309 309 304 269 254 269 160 171 159 267 256 239 235 232 245 271 282 287 285 336 307 274 287 253 253 258 271 223 304 235 248 257 313 323 313 321 329 323 339 339 327 261 232 230 226 218 204 206 205 196 188 191 188
320 315 279 299 290 198 195 179 166 200 250 227 244 268 268 284 287 283 282 281 278 259 246 193 243 218 234 264 247 218 236 8 329 293 291 314 317 328 346 351 356 341 267 238 215 215 214 220 213 206 191 190 196 196
318 280 313 317 199 184 206 208 193 226 255 245 242 244 264 278 272 273 256 260 245 296 313 257 211 237 148 228 247 217 358 208 279 287 270 291 299 311 320 331 343 14 50 35 343 221 214 217 214 182 193 206 206 203
260 332 6 143 154 154 174 251 259 245 247 247 261 269 237 243 266 267 255 255 199 251 262 311 316 255 248 263 26 30 302 278 284 274 302 300 286 296 301 314 320 5 25 16 6 340 105 186 217 224 219 191 188 204
297 315 330 239 217 257 188 212 221 268 252 278 266 264 262 266 259 256 260 252 230 256 288 270 252 239 244 230 275 287 272 320 326 316 302 306 288 296 311 317 325 37 313 315 316 317 330 219 240 237 230 207 221 218
295 272 266 284 206 298 245 207 196 249 268 277 257 263 255 256 274 261 252 211 184 192 206 219 231 219 223 227 224 271 280 299 313 319 318 359 2 349 351 337 320 324 320 297 305 312 309 309 305 291 251 234 224 230
316 244 156 182 135 259 282 264 234 227 274 259 276 256 266 253 252 248 237 170 186 216 232 231 242 244 237 256 263 274 278 269 267 265 289 306 351 336 344 6 344 310 357 347 354 340 340 322 330 314 320 319 296 290
264 200 145 203 233 254 254 234 273 298 271 273 287 232 266 275 262 224 146 197 229 233 222 247 254 262 266 264 270 276 285 294 291 283 273 279 303 333 345 346 337 327 318 318 335 345 346 346 341 346 2 358 10 22
298 203 196 177 251 229 263 170 249 240 257 260 261 257 239 250 236 153 244 231 256 242 234 255 272 271 262 277 288 304 302 283 281 292 296 273 244 263 298 351 353 353 353 16 338 334 335 335 6 24 37 44 54 57
281 242 186 191 209 267 251 241 226 253 253 253 242 266 234 277 282 251 257 245 253 283 264 272 278 297 292 307 329 358 2 354 225 84 50 57 103 47 343 350 7 13 357 331 337 339 347 17 65 83 73 66 61 56
185 220 232 247 228 234 240 243 224 233 260 239 259 283 310 346 259 246 227 245 307 327 339 357 30 35 342 74 76 68 52 35 69 91 48 38 12 57 64 51 44 31 5 13 29 26 27 58 76 83 67 51 70 79
239 204 197 219 217 215 255 265 210 192 261 253 248 241 207 239 237 263 294 292 327 26 15 3 355 48 101 69 117 93 47 38 95 89 59 41 51 62 62 58 48 46 18 16 20 33 45 51 65 76 78 73 58 64
255 249 221 236 268 291 274 257 251 265 257 252 241 278 219 236 247 257 286 45 14 2 322 350 51 84 91 94 93 60 38 67 77 87 85 60 46 36 40 41 34 5 348 24 44 55 67 67 71 81 82 78 64 50
246 264 227 218 219 228 252 267 253 250 268 319 283 240 175 216 226 198 286 3 287 308 10 44 54 75 84 75 79 88 80 87 96 103 95 72 50 32 20 28 35 29 46 56 63 69 76 86 88 82 76 71 69 63
235 235 223 263 247 233 227 224 226 236 230 212 275 229 194 267 345 26 40 209 103 67 67 71 74 83 86 82 72 62 49 43 76 68 53 42 30 15 0 356 12 26 37 65 55 58 65 80 88 90 82 72 54 47
246 189 228 263 261 254 243 208 253 251 233 229 254 272 94 85 58 184 138 146 115 87 79 81 84 91 91 90 87 69 48 54 55 61 57 45 29 10 19 25 24 20 19 23 27 34 33 39 53 49 43 45 32 26
264 198 234 221 262 250 236 241 261 267 251 258 255 86 92 88 84 57 104 120 119 110 99 94 81 78 91 91 89 87 75 53 60 64 66 59 45 38 35 35 37 41 45 49 49 46 49 52 51 50 47 46 43 43
227 208 208 250 266 237 193 177 212 331 17 36 33 76 76 70 33 28 10 106 121 102 90 105 103 88 84 87 83 81 88 88 70 60 53 48 42 38 40 42 46 53 58 59 57 56 57 58 55 52 51 49 47 45
209 242 239 272 263 109 1 6 51 88 84 57 35 39 57 95 118 86 58 14 139 130 117 102 99 94 89 92 97 94 88 86 84 76 69 63 56 49 53 54 57 60 61 60 56 53 50 48 46 41 36 33 30 27